Lid_Strength_Index
5 8 8 9 15 16 19 16 15 13 13 13 10 10 11 12 12 14 10 10 10 6 4 3 1 2 2 2 1 -0 -1 -1 -2 -1 -1 -1 -1 -1 -1 -1 -1 -1 -1 -1 -1 -1 -1 -1 -1
7 6 7 13 16 20 19 16 15 14 13 13 11 11 12 14 12 12 12 10 9 6 4 3 2 2 2 3 3 2 0 -1 -1 -1 -2 -1 -1 -1 -1 -1 -1 -1 -1 -1 -1 -1 -1 -1 -1
9 6 10 15 19 19 18 15 16 14 14 13 13 11 13 13 13 13 11 9 9 8 7 4 2 3 3 3 3 4 3 2 0 -1 -1 -1 -2 -1 -1 -1 -1 -1 -1 -1 -1 -1 -1 -1 -1
8 10 13 16 18 18 17 17 15 14 14 13 14 13 14 12 12 11 9 9 9 9 8 5 3 3 3 3 3 3 4 3 3 2 -0 -1 -1 -1 -1 -1 -1 -1 -2 -2 -2 -2 -2 -2 -2
11 13 17 18 17 16 17 15 15 15 15 15 14 14 14 12 10 9 9 8 9 9 8 8 4 3 3 3 3 4 5 4 4 3 2 1 0 -1 -1 -1 -2 -1 -1 -1 -2 -2 -2 -1 -1
13 14 18 19 18 16 16 16 15 16 17 16 15 14 14 11 10 10 9 10 9 9 9 9 6 5 4 4 4 4 5 5 5 4 4 3 2 1 -1 -1 -1 -2 -2 -1 -2 -1 -1 -1 -1
14 15 18 18 18 17 16 16 18 18 17 17 17 15 14 12 10 10 10 10 10 10 10 10 9 8 6 5 5 4 4 4 5 6 5 5 4 2 0 -1 -1 -1 -2 -1 -2 -1 -1 -1 -1
13 15 19 19 19 18 17 17 17 17 18 15 16 17 16 13 10 10 10 10 10 10 10 10 10 10 10 10 6 6 5 5 4 6 6 7 4 3 2 1 -0 -1 -1 -1 -1 -1 -1 -1 -1
14 17 19 19 18 18 17 18 17 16 17 16 15 16 13 11 10 11 12 11 11 10 10 10 10 10 10 10 9 7 7 6 6 6 5 7 6 5 4 3 3 -1 -1 -1 -1 -1 -1 -0 0
17 19 19 19 19 19 17 17 17 16 17 16 16 13 11 11 12 13 13 12 13 12 11 11 11 10 10 9 9 9 9 8 8 8 7 6 6 6 4 4 3 1 1 -0 -1 -1 -0 1 -0
17 19 17 17 17 16 16 17 16 17 18 16 16 14 13 12 11 12 12 12 12 12 11 10 10 10 11 10 9 10 9 9 9 9 8 7 6 5 5 4 4 2 2 1 0 -0 -0 0 0
18 15 15 15 14 15 16 15 16 16 15 14 14 14 13 12 12 12 12 12 12 11 11 11 10 10 10 10 10 10 10 10 10 9 8 8 7 7 5 5 4 4 3 0 0 0 0 1 0
16 16 14 14 14 15 14 15 16 15 14 13 13 12 13 12 12 12 11 11 11 12 11 11 11 11 10 10 10 10 10 10 9 9 8 7 8 8 6 5 4 5 4 4 1 0 1 1 1
16 15 15 15 14 14 15 16 16 15 15 14 13 12 12 12 12 12 12 12 12 11 11 11 11 11 10 10 11 10 10 10 10 9 8 8 7 7 7 6 5 4 4 4 4 1 0 0 0
15 17 17 15 15 15 15 17 17 15 14 14 13 13 12 12 12 12 12 12 12 12 11 11 11 10 11 11 11 10 10 10 10 9 8 8 7 7 7 7 6 5 4 5 5 6 -0 0 0
18 18 20 17 15 15 15 19 16 15 16 14 14 13 13 12 12 12 12 12 12 12 12 12 11 11 11 11 11 10 10 10 10 9 9 9 8 7 7 7 6 5 4 4 4 4 5 1 1
19 23 20 18 15 16 16 18 15 15 14 14 15 15 14 13 12 12 12 13 12 12 12 12 11 11 11 10 10 10 9 9 8 8 8 9 8 7 7 6 6 5 4 3 2 3 4 3 2
23 23 20 20 18 17 18 17 14 14 15 16 15 15 14 13 13 12 12 12 12 13 12 12 11 11 11 11 11 11 10 10 9 9 8 7 7 7 7 7 6 5 5 4 2 2 3 2 1
19 20 21 19 17 17 18 18 16 14 16 16 16 16 15 14 13 13 12 13 12 12 12 12 12 12 11 12 12 12 12 11 9 9 7 7 7 6 7 7 6 5 5 4 3 3 5 3 1
18 23 23 18 17 18 19 18 16 16 16 16 16 16 15 15 15 13 13 13 12 12 12 12 12 12 12 12 12 12 11 10 10 9 8 7 7 6 6 6 6 6 5 4 4 4 4 2 1
19 22 23 20 18 19 20 21 19 17 16 16 16 16 16 15 15 14 13 12 13 13 13 12 12 12 12 12 12 12 11 11 10 9 9 8 7 6 6 5 5 5 5 5 4 3 3 3 2
23 18 17 19 24 27 19 26 20 19 17 16 15 16 16 16 15 13 13 13 13 13 13 13 13 13 12 12 12 12 12 12 11 10 9 8 7 7 6 5 5 5 4 5 4 3 2 2 3
19 17 18 20 27 24 25 28 21 19 18 17 16 15 16 15 15 13 13 13 13 13 14 14 14 13 13 13 12 13 13 11 10 9 9 8 7 6 6 5 5 5 4 3 4 3 2 2 2
17 20 21 23 29 30 28 27 23 20 20 18 17 16 15 15 14 13 13 13 14 14 15 15 14 14 14 14 13 13 12 11 11 10 9 9 7 7 5 4 3 3 4 4 2 2 2 2 2
18 26 29 29 31 28 32 27 21 19 18 17 16 15 15 15 14 14 15 15 15 14 14 14 14 15 14 14 14 13 13 12 11 10 9 8 8 7 5 3 3 3 3 2 1 1 1 2 2
20 24 27 32 30 29 30 27 21 18 17 17 16 16 15 15 14 15 15 15 15 15 15 15 15 15 15 15 14 14 12 11 10 9 9 8 8 6 5 2 2 2 1 1 1 1 1 1 2
22 25 21 30 34 32 29 25 19 17 20 18 17 16 16 15 15 15 15 15 16 16 16 16 15 15 15 15 14 14 13 10 10 9 8 7 6 4 3 2 1 1 1 1 2 1 2 3 3
21 18 25 28 31 33 30 33 22 22 23 21 20 20 17 16 16 16 16 16 17 17 17 16 15 15 15 15 14 13 12 11 10 9 8 7 6 4 3 2 2 3 3 3 3 3 3 3 3
20 25 25 25 25 30 32 26 22 22 23 23 21 19 19 18 17 17 18 18 18 17 18 17 16 16 15 14 14 13 11 11 10 9 7 7 6 5 4 4 4 3 3 3 4 4 4 3 3
19 23 21 25 28 28 26 24 18 23 27 29 22 19 18 18 18 19 20 19 19 19 19 18 16 16 14 14 13 12 12 10 10 9 7 6 6 5 4 5 5 5 5 5 5 5 5 5 5